Regional Weather Roundup
Issued by NWS Charleston, SC

Current Version | Previous Version | Graphics & Text | Print | Product List | Glossary On
Versions: 1 2 3 4 5 6 7 8 9 10 11 12 13 14 15 16 17 18 19 20 21 22 23 24 25 26 27 28 29 30 31 32 33 34 35 36 37 38 39 40 41 42 43 44 45 46 47 48 49 50
000 ASUS42 KCHS 221710 RWRCHS REGIONAL WEATHER ROUNDUP NATIONAL WEATHER SERVICE CHARLESTON SC 100 PM EDT WED OCT 22 2014 NOTE: "FAIR" INDICATES FEW OR NO CLOUDS BELOW 12,000 FEET WITH NO SIGNIFICANT WEATHER AND/OR OBSTRUCTIONS TO VISIBILITY. NOT ALL STATIONS ARE QUALITY CONTROLLED BY THE NATIONAL WEATHER SERVICE. USE DATA WITH CAUTION...ESPECIALLY DEWPOINT OBSERVATIONS. SCZ027-030-031-034>040-042>050-221800- ...SOUTH CAROLINA... CITY SKY/WX TMP DP RH WIND PRES REMARKS N CHARLESTON FAIR 67 43 41 NE9 30.04 WATERFRONT PRK NOT AVBL FORT JOHNSON NOT AVBL JOHNS ISLAND SUNNY 68 45 42 NW8G17 30.04 PINOPOLIS NOT AVBL MONCKS CORNER FAIR 64 48 55 NW6 30.04 SUMMERVILLE FAIR 64 43 45 NW9 30.05 BEAUFORT MCAS FAIR 67 45 45 NE8 30.05 BEAUFORT ARPT FAIR 64 46 52 NW6 30.05 HILTON HEAD IS SUNNY 64 46 52 N6 30.06 GEORGETOWN NOT AVBL WALTERBORO FAIR 68 36 30 N7 30.06 ORANGEBURG FAIR 65 41 41 N9 30.06 BARNWELL FAIR 66 39 37 NW8G20 30.07 AIKEN FAIR 64 43 45 N10 30.11 MANNING FAIR 64 43 45 N10 30.05 KINGSTREE NOT AVBL COLUMBIA FAIR 65 39 38 VRB6 30.07 SUMTER FAIR 63 42 46 NW13 30.04 FLORENCE FAIR 64 41 42 NW12 30.03 MYRTLE BEACH SUNNY 64 41 42 N15 30.02 N MYRTLE BEACH FAIR 64 42 44 W8 30.00 $$ GAZ063-065-086>088-099>101-113>116-118-119-134-136>141-150-221800- ...GEORGIA... CITY SKY/WX TMP DP RH WIND PRES REMARKS SAVANNAH ARPT FAIR 68 43 40 N5 30.06 HUNTER AAF FAIR 67 44 42 N5 30.04 FORT STEWART FAIR 66 44 44 VRB7 30.05 STATESBORO NOT AVBL SYLVANIA FAIR 71 49 45 CALM 30.08 CLAXTON FAIR 68 43 40 N7 30.07 THOMSON FAIR 65 47 52 NE6 30.14 AUGUSTA-BUSH FAIR 66 38 35 N8 30.08 AUGUSTA-DANIEL FAIR 65 38 36 VRB7 30.09 SWAINSBORO FAIR 68 45 42 MISG 30.08 VIDALIA FAIR 66 45 45 N3 30.07 ALMA FAIR 68 44 42 VRB3 30.05 WAYCROSS FAIR 72 48 43 NE3 30.05 JESUP FAIR 70 46 43 NE6 30.06 BRUNSWICK FAIR 70 45 40 NE3 30.05 SAINT SIMONS FAIR 68 49 50 NE7 30.04 $$ SCZ027-028-034-036>038-045-046-048>050-GAZ119-141-221800- ...LAKE AND SUPPLEMENTAL COASTAL OBSERVATIONS... STATION/POSITION TIME TEMP WIND PRES WAVE SWELL AIR SEA DIR/SP/G HT/PER HT/PER/DIR (UTC) (F) (DEG/KT/KT) (MB) (FT/S) (FT/S/D) UPR LAKE MARION NOT AVBL WINYAH BAY NOT AVBL LAKE MURRAY NOT AVBL ACE BASIN NERRS NOT AVBL FORT PULASKI 1700 63 360/ 6/ 9 1018.0 SAPELO ISLAND NOT AVBL $$ ANZ835-935-AMZ111-154-330-350-352-354-374-450-454-472-221800- ...C-MAN AND BUOY OBSERVATIONS... STATION/POSITION TIME TEMP WIND PRES WAVE SWELL AIR SEA DIR/SP/G HT/PER HT/PER/DIR (UTC) (F) (DEG/KT/KT) (MB) (FT/S) (FT/S/D) FOLLY BEACH CMAN NOT AVBL BUOY 41004 1700 63 79 350/ 16/ 19 1016.1 5/ 6 2/ 9 BUOY 41008 1700 65 76 30/ 16/ 19 1017.3 4/ 6 2/100/ 8 5E ST. MARYS GA 1700 77 N/A 4/ 5 FRYING PAN BUOY 1700 61 75 320/ 14/ 19 1015.8 4/ 5 2/ 90/ 8 BUOY 41025 1700 62 290/ 23/ 29 1010.6 5/ 5 2/ 60/11 CAPE LOOKOUT NC NOT AVBL BUOY 41002 1552 75 79 310/ 14/ 17 1012.0 5/ 6 2/110/ 9 BUOY 41010 1700 80 80 310/ 8/ 10 1014.7 2/ 8 2/ 70/ 8 BUOY 41012 NOT AVBL ST AUGUSTINE FL 1700 71 360/ 17/ 20 1016.8 CAPERS NEARSHORE NOT AVBL FRIPP NEARSHORE NOT AVBL $$

USA.gov is the U.S. government's official web portal to all federal, state and local government web resources and services.